Weather observations for the past three days for
Clarksburg, Clarksburg Benedum Airport
Imperial (Metric)
Date Time (edt) Wind (mph) Vis. (mi.) Weather Sky Cond. Temperature (ºF) Relative Humidity Wind Chill (°F) Heat Index (°F) Pressure Precipitation (in)
Air Dwpt 6 hour altimeter (in) sea level (mb) 1 hr 3 hr 6 hr
Max. Min.
06 13:53 NW 9 10.00 Overcast OVC007 57 55 60.1 55.9 93% 29.83 1009.2 0.04
06 12:53 NW 12 G 18 10.00 Light Rain BKN008 OVC013 59 57 93% 29.82 1008.7 0.01
06 11:53 SW 8 G 17 7.00 Light Rain OVC007 60.1 57.9 93% 29.8 1008.1 0.01
06 10:53 SW 8 6.00 Fog/Mist OVC009 59 57 93% 29.78 1007.2 0.02
06 09:53 SW 12 10.00 Overcast OVC012 59 55.9 90% 29.76 1006.6
06 08:53 S 6 10.00 Light Rain OVC013 57 55.9 96% 29.75 1006.5 0.02
06 07:53 Calm 7.00 Light Rain BKN015 OVC023 55.9 54 62.1 55 93% 29.76 1006.6 0.08 0.4
06 06:53 Calm 7.00 Light Rain SCT029 OVC037 55.9 54 93% 29.75 1006.3 0.09
06 05:53 SE 6 7.00 Light Rain BKN050 OVC070 55.9 54 93% 29.75 1006.2 0.19
06 04:53 NW 5 7.00 Rain BKN047 OVC055 57 55 93% 29.76 1006.7 0.04 0.04
06 03:53 Calm 10.00 Light Rain OVC065 59 54 83% 29.74 1005.9
06 02:53 Calm 10.00 Overcast SCT070 OVC100 60.1 51.1 72% 29.75 1006.1
06 01:53 Calm 10.00 Light Rain OVC075 61 51.1 69.1 60.1 70% 29.76 1006.6
06 00:53 Calm 10.00 Overcast OVC075 63 48.9 60% 29.79 1007.5
05 23:53 Calm 10.00 Overcast OVC085 64 48 56% 29.79 1007.3
05 22:53 SE 3 10.00 Overcast OVC090 66 46 49% 29.79 1007.3
05 21:53 SW 9 10.00 Light Rain OVC095 69.1 44.1 41% 29.8 1007.8
05 20:53 S 5 10.00 A Few Clouds FEW120 68 45 44% 29.79 1007.4
05 19:53 SW 6 10.00 Fair CLR 68 46 75.9 68 45% 29.79 1007.6
05 18:53 SW 12 G 18 10.00 Fair CLR 71.1 44.1 38% 29.79 1007.5
05 17:53 SW 12 G 20 10.00 Fair CLR 73 45 37% 29.82 1008.4
05 16:53 SW 21 G 30 10.00 Fair and Breezy CLR 73.9 44.1 34% 29.82 1008.3
05 15:53 SW 21 G 33 10.00 Fair and Breezy CLR 73.9 45 36% 29.82 1008.6
05 14:53 SW 17 G 29 10.00 A Few Clouds FEW070 75 45 34% 77 29.83 1008.8
05 13:53 SW 20 G 31 10.00 A Few Clouds FEW065 75 48 75.9 64.9 39% 77 29.83 1008.6
05 12:53 SW 20 G 30 10.00 A Few Clouds FEW060 73.9 46.9 38% 29.84 1009.4
05 11:53 SW 18 G 35 10.00 Fair CLR 73 48 41% 29.86 1009.8
05 10:53 SW 21 G 28 10.00 Fair and Breezy CLR 72 48 43% 29.87 1010.2
05 09:53 SW 17 G 28 10.00 Partly Cloudy FEW060 SCT080 68 46 45% 29.88 1010.6
05 08:53 SW 15 G 24 10.00 Mostly Cloudy SCT070 BKN080 66.9 46.9 49% 29.87 1010.4
05 07:53 S 14 G 28 10.00 Partly Cloudy FEW070 SCT085 64.9 46 64.9 59 51% 29.87 1010.3
05 06:53 SW 12 10.00 A Few Clouds FEW085 62.1 45 54% 29.86 1010.1
05 05:53 S 8 10.00 Partly Cloudy SCT075 61 45 56% 29.84 1009.4
05 04:53 SW 10 10.00 Fair CLR 62.1 44.1 52% 29.83 1008.9
05 03:53 S 9 10.00 A Few Clouds FEW080 61 44.1 54% 29.82 1008.6
05 02:53 S 6 10.00 Fair CLR 61 45 56% 29.81 1008.3
05 01:53 S 7 10.00 Mostly Cloudy BKN110 62.1 45 68 57 54% 29.82 1008.7
05 00:53 S 5 10.00 Fair CLR 57.9 46 65% 29.82 1008.7
04 23:53 SW 5 10.00 A Few Clouds FEW100 60.1 46 60% 29.81 1008.4
04 22:53 Calm 10.00 Fair CLR 61 46 58% 29.81 1008.5
04 21:53 SE 3 10.00 Fair CLR 63 46 54% 29.82 1008.7
04 20:53 S 6 10.00 Mostly Cloudy BKN090 64.9 46 51% 29.82 1008.7
04 19:53 SW 13 G 20 10.00 Partly Cloudy SCT090 SCT110 68 46 73 66.9 45% 29.81 1008.7
04 18:53 SW 15 G 22 10.00 Partly Cloudy SCT100 69.1 48 47% 29.81 1008.5
04 17:53 SW 9 10.00 Mostly Cloudy BKN110 71.1 46.9 42% 29.82 1008.8
04 16:53 SW 17 G 28 10.00 Overcast OVC100 71.1 46 41% 29.81 1008.5
04 15:53 SW 17 G 25 10.00 Mostly Cloudy SCT065 BKN110 71.1 45 39% 29.81 1008.6
04 14:53 SW 14 G 24 10.00 A Few Clouds FEW080 70 46 42% 29.83 1009.1
04 13:53 SW 17 G 26 10.00 Fair CLR 68 46 69.1 52 45% 29.85 1010.0
04 12:53 SW 20 G 35 10.00 A Few Clouds FEW075 66 45 47% 29.88 1011.0
04 11:53 SW 22 G 29 10.00 Mostly Cloudy and Breezy FEW050 SCT075 BKN090 64.9 43 45% 29.9 1011.7
04 10:53 SW 15 G 24 10.00 Mostly Cloudy BKN080 63 41 45% 29.91 1012.2
04 09:53 SW 15 G 25 10.00 Fair CLR 61 37.9 43% 29.91 1012.1
04 08:53 S 13 10.00 A Few Clouds FEW070 57 37.9 49% 29.91 1012.1
04 07:53 S 7 10.00 Mostly Cloudy BKN070 52 37.9 53.1 48 59% 29.92 1012.5
04 06:53 Calm 10.00 Mostly Cloudy SCT075 BKN110 48 37.9 68% 29.93 1012.8
04 05:53 S 3 10.00 Overcast OVC070 48.9 37 64% 29.93 1013.1
04 04:53 SE 5 10.00 Overcast OVC070 48.9 35.1 59% 48 29.94 1013.4
04 03:53 S 6 10.00 Light Rain OVC070 50 34 54% 48 29.96 1013.8
04 02:53 S 3 10.00 Overcast OVC070 48.9 30.9 50% 29.96 1013.9
04 01:53 SE 3 10.00 Overcast BKN070 OVC080 50 30.9 55 48.9 48% 29.96 1014.1
04 00:53 S 3 10.00 Mostly Cloudy BKN080 48.9 30 48% 29.97 1014.3
03 23:53 S 3 10.00 Overcast OVC075 50 30.9 48% 29.97 1014.4
03 22:53 Calm 10.00 Overcast BKN080 OVC090 48.9 30.9 50% 29.97 1014.7
03 21:53 S 3 10.00 A Few Clouds FEW120 52 28 40% 29.97 1014.5
03 20:53 SW 5 10.00 Fair CLR 52 28 40% 29.97 1014.7
03 19:53 W 8 10.00 Fair CLR 55 26.1 59 55 33% 29.96 1014.5
03 18:53 W 10 10.00 Fair CLR 57.9 26.1 29% 29.97 1014.7
03 17:53 W 10 G 18 10.00 Fair CLR 57.9 24.1 27% 29.98 1014.9
03 16:53 W 9 G 18 10.00 Fair CLR 59 26.1 28% 29.98 1015.0
03 15:53 SW 9 G 20 10.00 A Few Clouds FEW075 59 27 29% 30.01 1015.9
03 14:53 Vrbl 6 G 18 10.00 Fair CLR 57 25 29% 30.03 1016.7
Date Time (edt) Wind (mph) Vis. (mi.) Weather Sky Cond. Air Dwpt Max. Min. Relative Humidity Wind Chill (°F) Heat Index (°F) altimeter (in) sea level (mb) 1 hr 3 hr 6 hr
6 hour
Temperature (ºF) Pressure Precipitation (in)